TimePST,TemperatureF,Dew PointF,Humidity,Sea Level PressureIn,VisibilityMPH,Wind Direction,Wind SpeedMPH,Gust SpeedMPH,PrecipitationIn,Events,Conditions,WindDirDegrees,DateUTC
12:55 AM,26.1,16.0,66,30.16,6.0,ESE,5.8,-,N/A,,Haze,110,2013-12-06 08:55:00
1:55 AM,27.0,18.0,69,30.16,6.0,ESE,5.8,-,N/A,,Haze,120,2013-12-06 09:55:00
2:55 AM,28.0,19.9,72,30.17,6.0,ESE,4.6,-,N/A,,Haze,120,2013-12-06 10:55:00
3:55 AM,25.0,18.0,75,30.17,6.0,Calm,Calm,-,N/A,,Haze,0,2013-12-06 11:55:00
4:55 AM,27.0,19.9,75,30.16,6.0,East,4.6,-,N/A,,Haze,100,2013-12-06 12:55:00
5:55 AM,28.0,21.0,75,30.16,6.0,ESE,9.2,-,N/A,,Haze,110,2013-12-06 13:55:00
6:55 AM,28.0,21.9,78,30.17,5.0,SE,10.4,-,N/A,,Haze,130,2013-12-06 14:55:00
7:55 AM,30.0,23.0,75,30.18,4.0,SE,8.1,-,N/A,,Haze,140,2013-12-06 15:55:00
8:55 AM,35.1,25.0,67,30.19,4.0,SE,9.2,-,N/A,,Haze,140,2013-12-06 16:55:00
9:55 AM,42.1,24.1,49,30.19,6.0,SE,8.1,-,N/A,,Haze,140,2013-12-06 17:55:00
10:55 AM,45.0,25.0,46,30.19,5.0,South,8.1,-,N/A,,Haze,170,2013-12-06 18:55:00
11:55 AM,46.9,25.0,42,30.18,6.0,South,6.9,-,N/A,,Haze,170,2013-12-06 19:55:00
12:55 PM,48.0,26.1,42,30.15,7.0,South,5.8,-,N/A,,Overcast,170,2013-12-06 20:55:00
1:55 PM,48.9,25.0,39,30.13,7.0,SSE,4.6,-,N/A,,Clear,150,2013-12-06 21:55:00
2:55 PM,48.9,25.0,39,30.11,6.0,SE,6.9,-,N/A,,Haze,130,2013-12-06 22:55:00
3:55 PM,48.0,25.0,41,30.10,6.0,SE,8.1,-,N/A,,Haze,140,2013-12-06 23:55:00
4:55 PM,46.9,24.1,41,30.09,7.0,SE,9.2,-,N/A,,Overcast,140,2013-12-07 00:55:00
5:55 PM,46.0,24.1,42,30.07,7.0,SE,10.4,-,N/A,,Overcast,140,2013-12-07 01:55:00
6:55 PM,46.0,24.1,42,30.06,7.0,SE,10.4,-,N/A,,Overcast,130,2013-12-07 02:55:00
7:55 PM,46.9,23.0,39,30.02,7.0,SSE,16.1,-,N/A,,Overcast,150,2013-12-07 03:55:00
8:55 PM,44.1,28.0,53,30.01,6.0,SSE,17.3,25.3,0.00,Rain,Light Rain,150,2013-12-07 04:55:00
9:55 PM,45.0,27.0,49,29.98,7.0,SSE,23.0,28.8,0.00,,Overcast,150,2013-12-07 05:55:00
10:55 PM,44.1,28.0,53,29.94,5.0,SSE,20.7,28.8,0.00,Rain,Light Rain,150,2013-12-07 06:55:00
11:40 PM,41.0,33.8,76,29.93,2.5,SE,18.4,24.2,0.03,Rain,Rain,140,2013-12-07 07:40:00
11:55 PM,39.9,34.0,79,29.93,2.5,SE,17.3,26.5,0.06,Rain,Rain,130,2013-12-07 07:55:00